Regional Weather Roundup
Issued by NWS Wakefield, VA

Home | Current Version | Previous Version | Graphics & Text | Print | Product List | Glossary On
Versions: 1 2 3 4 5 6 7 8 9 10 11 12 13 14 15 16 17 18 19 20 21 22 23 24 25 26 27 28 29 30 31 32 33 34 35 36 37 38 39 40 41 42 43 44 45 46 47 48 49 50
000
ASUS41 KAKQ 241016
RWRAKQ

REGIONAL WEATHER ROUNDUP
NATIONAL WEATHER SERVICE WAKEFIELD VA
600 AM EDT SUN SEP 24 2017

Note: "fair" indicates few or no clouds below 12,000 feet with no
significant weather and/or obstructions to visibility. * = Denotes
station may not report precipitation (e.g., rain,snow,etc.),
thunder or fog.

VAZ042-051-052>054-056-241100-
NORTHERN VIRGINIA

CITY           SKY/WX    TMP DP  RH WIND       PRES   REMARKS
WASH NATIONAL  MOCLDY    67  61  81 N9        30.08R
DULLES         PTCLDY    63  60  90 NW6       30.10R
FORT BELVOIR   CLEAR     60  59  96 CALM      30.07
QUANTICO         N/A     65  61  87 NW7       30.08S
FREDERICKSBRG* CLEAR     60  60 100 CALM      30.08R
STAFFORD*      CLEAR     57  57 100 CALM      30.12S
WARRENTON      CLEAR     53  51  90 CALM      30.09R
CULPEPER*      CLEAR     58  56  96 CALM      30.11R
MANASSAS*      CLEAR     57  56  96 CALM      30.10R
LEESBURG*      CLEAR     61  61 100 CALM      30.11R
WINCHESTER     CLEAR     54  52  94 CALM      30.13S
FRONT ROYAL*   SUNNY     57  54  88 S5        30.13R
LURAY*         SUNNY     55  54  94 CALM      30.16R
$$

VAZ048-049-060>072-079>083-241100-
CENTRAL AND SOUTH CENTRAL VIRGINIA

CITY           SKY/WX    TMP DP  RH WIND       PRES   REMARKS
RICHMOND       CLEAR     64  61  90 N7        30.07R
CHESTERFIELD*  NOT AVBL
PETERSBURG*    CLEAR     59  59 100 CALM      30.07S
HANOVER        CLEAR     62  61  96 NW3       30.08S
TAPPAHANNOCK*  CLEAR    N/A N/A N/A CALM      30.07S
QUINTON*       FAIR      61  61 100 CALM      30.06R
CHARLOTTSVILLE PTCLDY    60  58  92 CALM      30.11R
GORDONSVILLE*  MOSUNNY   56  56 100 CALM      30.10R
ORANGE*        CLEAR     55  54  94 CALM      30.10S
LOUISA*        PTCLDY    55  54  94 CALM      30.09S
BUMPASS*       FAIR      58  58 100 NW5       30.09S
FARMVILLE*       N/A     59  59 100 CALM      30.09R FOG
CREWE*         FAIR      61  61 100 NW3       30.08R
FORT PICKETT*  FAIR      64  64 100 NW3       30.08R
CHASE CITY*    FAIR      63  63 100 CALM      30.09S
CLARKSVILLE*   FAIR      63  63 100 CALM      30.08S
SOUTH HILL*    CLEAR     63  63 100 CALM      30.13S
LAWRENCEVILLE* FAIR      61  60  97 CALM      30.07S
EMPORIA*       PTCLDY    61  61 100 CALM      30.07S
$$

VAZ088>098-241100-
SOUTHEAST VIRGINIA

CITY           SKY/WX    TMP DP  RH WIND       PRES   REMARKS
NORFOLK        CLEAR     69  68  96 CALM      30.04R
VIRGINIA BEACH PTCLDY    64  62  93 CALM      30.03R
NORFOLK NAVAL  PTCLDY    68  65  90 CALM      30.06R
WEST POINT*    CLEAR     59  59 100 CALM      30.07S
SALUDA*        FAIR      65  65 100 NW3       30.05S
NEWPORT NEWS   FOG       64  62  93 CALM      30.05R VSB 1/4
LANGLEY AFB    CLEAR     67  67 100 CALM      30.04R
FORT EUSTIS    CLEAR     71  69  96 NW5       30.02
WILLIAMSBURG*  CLEAR     68  68 100 N3        30.06S
HR EXEC AP*    FOG       59  59 100 CALM      30.06R VSB 3/4
FRANKLIN*      MOCLDY    62  61  97 CALM      30.06R
US460-WAKEFLD  CLEAR     63  62  97 CALM      30.06R
$$

VAZ020-022-025-037-045-241100-
WEST CENTRAL AND SOUTHWEST VIRGINIA

CITY           SKY/WX    TMP DP  RH WIND       PRES   REMARKS
STAUNTON*      PTCLDY    51  50  97 CALM      30.18R
WAYNESBORO*    MOSUNNY   55  55 100 CALM      30.16S
HOT SPRINGS VA PTCLDY    64  45  49 CALM      30.26S
LYNCHBURG      CLOUDY    65  58  78 CALM      30.11S
DANVILLE       MOCLDY    60  60 100 CALM      30.10R
SOUTH BOSTON*  FAIR      60  59  95 CALM      30.09S
MARTINSVILLE   PTCLDY    58  57  97 CALM      30.14S
ROANOKE        CLOUDY    59  57  93 CALM      30.16S
BLACKSBURG     PTCLDY    56  56  97 CALM      30.21S
DUBLIN*        PTCLDY    56  55  94 CALM      30.19S
MARION*        PTCLDY    53  50  90 CALM      30.23S
HILLSVILLE*    CLOUDY    57  52  82 CALM      30.19F
RICHLANDS*     FAIR      64  54  70 CALM      30.19S
WISE*          CLEAR     63  54  72 CALM      30.20R
ABINGDON*      CLEAR     63  57  80 E7        30.17R
$$

MDZ021>025-VAZ099-100-241100-
SOUTHERN MARYLAND AND THE DELMARVA PENINSULA

CITY           SKY/WX    TMP DP  RH WIND       PRES   REMARKS
PATUXENT RIVER CLEAR     65  65 100 W3        30.05R
BAY BRIDGE APT CLEAR     70  66  88 N3        30.06R
LEONARDTOWN    CLEAR     61  59  94 CALM      30.07R
DOVER          NOT AVBL
GEORGETOWN     CLEAR     62  60  93 CALM      30.06R
EASTON         CLEAR     64  63  94 CALM      30.09R
CAMBRIDGE      CLEAR     61  61 100 N6        30.05S
SALISBURY      PTCLDY    63  63 100 CALM      30.04S
OCEAN CITY     CLEAR     63  63 100 N8        30.04S
WALLOPS ISLAND PTCLDY    66  66 100 CALM      30.04R FOG
ACCOMACK*      FOG       61  61  99 CALM      30.04S VSB 1/4
$$

NCZ012>017-030>032-241100-
NORTH CENTRAL AND EASTERN NORTH CAROLINA

CITY           SKY/WX    TMP DP  RH WIND       PRES   REMARKS
ROANOKE RAPIDS FAIR      61  61 100 CALM      30.06R FOG
RALEIGH        MOCLDY    64  63  96 CALM      30.08R
ELIZABETH CITY PTCLDY    65  65 100 CALM      30.03F
AHOSKIE*       CLEAR     63  63 100 CALM      30.06R FOG
EDENTON*       PTCLDY    66  65  95 CALM      30.05R
CURRITUCK*     PTCLDY    65  64  97 CALM      30.05S
KILL DEVIL HLS PTCLDY    68  65  90 CALM      30.01S
MANTEO         PTCLDY    69  66  92 NE5       30.03S
CAPE HATTERAS  PTCLDY    72  69  90 NE9       29.99F
TARBORO*       NOT AVBL
GOLDSBORO      PTCLDY    68  68 100 CALM      30.02S
WASHINGTON     PTCLDY    64  64  98 CALM      30.03S
GREENVILLE     FOG       64  64 100 CALM      30.05S VSB 1/2
NEW BERN       CLEAR     69  69 100 N7        30.03S
WILMINGTON     PTCLDY    69  68  96 NE7       30.00S
$$

VAZ048-241100-
ELSEWHERE

CITY           SKY/WX    TMP DP  RH WIND       PRES   REMARKS
HARRISBURG PA  CLEAR     65  62  90 N3        30.10R
BALTIMORE      PTCLDY    63  60  90 CALM      30.07R
ANNAPOLIS      CLEAR     71  68  90 NW5       30.06R
ANDREWS AFB    NOT AVBL
PHILADELPHIA   CLEAR     71  60  68 N6        30.06R
HENDERSON NC   PTCLDY    60  59  94 CALM      30.08S
GREENSBORO     PTCLDY    65  60  84 N5        30.10R
ROCKY MOUNT    PTCLDY    64  64 100 CALM      30.05S
$$

VAZ100-241100-
MARINE

STATION/POSITION TIME  TEMP    WIND        PRES    WAVE   SWELL
                       AIR SEA DIR/SP/G            HT/PER HT/PER
                 (UTC) (F)     (DEG/KT/KT) (MB)    (FT/S) (FT/S)
BRANDYWINE LGT   0948   74     360/  7/  8 1017.8R
CAPE MAY NJ      0948   69 74     CALM     1016.8R
LEWES DE         0948   68 74  290/  5/  6 1017.1R
15NM E FENWICK I 0950   72 71  310/  8/  8 1017.4R   4/12   3/12
OCEAN-CITY-INLET 0948   68 75  350/  5/  6 1017.4S
WACHAPREAGUE VA  0948   68 77  280/  2/  3 1017.2R
THOMAS POINT MD  1000   72 76  350/  6/  7   N/A
GOOSES REEF MD   1000   75 75   30/ 10/ 10 1018.1    0
COVE POINT MD    0948   75     350/ 10/ 11 1018.2R
SOLOMONS ISLAND  0948   70 76  320/  3/  5 1017.2R
BISHOPS HEAD MD  0948   71 77  350/  4/  5 1017.5R
PINEY POINT MD   0942          330/  8/  9   N/A
POTOMAC MD       1000   73 76  300/  6/  8 1016.9
CAMBRIDGE MD     0948   70 76              1018.3R
LEWISETTA VA     0948   69 77  270/  4/  5 1017.6R
RAPPAHANNOCK LGT 0948          310/  8/  8 1017.9R
STINGRAY PT      1000   73 76  330/  8/ 10 1017.8
YORK RVR RNG VA  0948   73     310/  5/  7 1017.7S
YORKTOWN VA      0948   71 77  300/  6/  6 1017.0R
JAMESTOWN VA     1000      78  340/  6/  6   N/A     0
DOMINION TERM VA 0948   73     330/  3/  4 1017.5R
KIPTOPEKE VA     0948      76  340/  2/  2   N/A
CHES BAY BRIDGE  0948   73 76  340/  5/  6 1017.1R
CAPE HENRY VA    0948   72     310/  2/  2   N/A
WILLOUBY STN VA  0948   72     320/  5/  6 1017.4R
S CRANEY ISL VA  0948   70     280/  3/  3 1017.1R
CAPE HENRY BUOY  1000      75                N/A     4/15   2/15
1ST LANDING BUOY 1000   74 76              1017.2    1/ 7
64NM E OF VA BCH 0950   70 69  350/  6/ 10 1017.3R   8/14   8/14
DUCK PIER NC     0948   74 76   50/  7/  9 1016.4F
44100 DUCK FRF   0935      74                N/A     5/13   3/13
44056 DUCK FRF   1000      76                N/A     5/14   3/14
OREGON INLET NC  0942   72 77   30/  6/  8 1016.3F
HATTERAS NC      0948   73 78   40/ 10/ 14 1015.5F
DIAMOND SHLS NC  0950   73 74   30/ 17/ 19 1014.9F   7/14   7/14
CAPE LOOKOUT NC  1000   73      20/ 12/ 14 1015.2F
$$



USA.gov is the U.S. government's official web portal to all federal, state and local government web resources and services.